Location: Brabourne
(51.1333°N, 1.0000°E)
Time: 04:55:53
(UTC+00:00)

NOSS 3-1 (A) - Pass Details

Date: 26 October 2021
Orbit: 721 x 1491 km, 63.4° (Epoch: 22 November)

Event Time Altitude Azimuth Distance (km) Brightness Sun altitude
Rises 18:08:59 0° 207° (SSW) 3,207 6.6 -14.4°
Reaches altitude 10° 18:11:15 10° 203° (SSW) 2,341 5.8 -14.7°
Maximum altitude 18:16:29 59° 125° (SE) 1,004 3.3 -15.6°
Enters shadow 18:21:31 16° 51° (NE) 2,335 5.0 -16.4°
